Private Wetterstation Wechselburg
Wetterdaten: Samstag, 22.02.2014
Datum Zeit Temp. +2m Bodentemp. Temp.+5cm Temp. Wind Windchill X Diff Temp. Feuchte +2m Feuchte +5cm Sonnenschein Luftdruck Regen Wind Richtung Richtung Sonnenschein UV Taupunkt Windchill Windben
22.02.2014 00:00 2,8 C 14,8 C 2,9 C 2,7 C 2,5 C 0,0 C 86 % 89 % 0 % 1014,7 hPa 0,0 l/m 0,3 km/h (0 Bft) SW 225 0 min 0,0 UV-I 0,7 C 2,5 C 2,3 km/h (1 Bft)
22.02.2014 00:05 2,8 C 14,8 C 3,0 C 2,7 C 2,6 C 0,0 C 86 % 89 % 0 % 1014,7 hPa 0,0 l/m 0,3 km/h (0 Bft) S-SW 202 0 min 0,0 UV-I 0,7 C 2,6 C 0,0 km/h (0 Bft)
22.02.2014 00:10 2,9 C 14,6 C 3,5 C 2,9 C 2,9 C 0,0 C 88 % 90 % 0 % 1014,5 hPa 0,0 l/m 3,4 km/h (1 Bft) S 180 0 min 0,0 UV-I 1,1 C 2,9 C 7,9 km/h (2 Bft)
22.02.2014 00:15 3,2 C 14,6 C 3,7 C 3,0 C 2,5 C 0,0 C 87 % 90 % 0 % 1014,5 hPa 0,0 l/m 5,0 km/h (1 Bft) S 180 0 min 0,0 UV-I 1,2 C 1,2 C 4,5 km/h (1 Bft)
22.02.2014 00:20 3,3 C 14,6 C 3,7 C 2,9 C 2,1 C 0,0 C 87 % 90 % 0 % 1014,5 hPa 0,0 l/m 6,0 km/h (2 Bft) S 180 0 min 0,0 UV-I 1,3 C 0,4 C 11,4 km/h (2 Bft)
22.02.2014 00:25 3,4 C 14,5 C 3,7 C 3,0 C 2,2 C 0,0 C 87 % 90 % 0 % 1014,5 hPa 0,0 l/m 5,8 km/h (2 Bft) S 180 0 min 0,0 UV-I 1,4 C 0,6 C 6,9 km/h (2 Bft)
22.02.2014 00:30 3,6 C 14,5 C 3,7 C 3,1 C 2,1 C 0,0 C 86 % 90 % 0 % 1014,8 hPa 0,0 l/m 5,8 km/h (2 Bft) S 180 0 min 0,0 UV-I 1,5 C 0,5 C 9,2 km/h (2 Bft)
22.02.2014 00:35 3,6 C 14,5 C 3,7 C 3,0 C 1,9 C 0,0 C 86 % 90 % 0 % 1014,8 hPa 0,0 l/m 6,1 km/h (2 Bft) S 180 0 min 0,0 UV-I 1,5 C 0,1 C 4,7 km/h (1 Bft)
22.02.2014 00:40 3,7 C 14,5 C 3,7 C 3,2 C 2,1 C 0,0 C 86 % 90 % 0 % 1014,8 hPa 0,0 l/m 5,3 km/h (1 Bft) S-SW 202 0 min 0,0 UV-I 1,6 C 0,7 C 4,0 km/h (1 Bft)
22.02.2014 00:45 3,7 C 14,4 C 3,7 C 3,4 C 2,8 C 0,0 C 85 % 90 % 0 % 1014,8 hPa 0,0 l/m 3,9 km/h (1 Bft) S 180 0 min 0,0 UV-I 1,4 C 2,8 C 4,5 km/h (1 Bft)
22.02.2014 00:50 3,9 C 14,4 C 3,7 C 3,5 C 2,6 C 0,0 C 85 % 90 % 0 % 1014,9 hPa 0,0 l/m 4,2 km/h (1 Bft) S-SO 157 0 min 0,0 UV-I 1,6 C 2,6 C 4,7 km/h (1 Bft)
22.02.2014 00:55 3,9 C 14,4 C 3,7 C 3,4 C 2,4 C 0,0 C 85 % 90 % 0 % 1014,9 hPa 0,0 l/m 4,7 km/h (1 Bft) S-SO 157 0 min 0,0 UV-I 1,6 C 1,3 C 4,3 km/h (1 Bft)
22.02.2014 01:00 3,7 C 14,4 C 3,6 C 3,2 C 2,1 C 0,0 C 85 % 90 % 0 % 1014,9 hPa 0,0 l/m 4,8 km/h (1 Bft) S 180 0 min 0,0 UV-I 1,4 C 0,9 C 6,0 km/h (2 Bft)
22.02.2014 01:05 3,7 C 14,4 C 3,6 C 3,1 C 2,0 C 0,0 C 85 % 90 % 0 % 1014,9 hPa 0,0 l/m 4,8 km/h (1 Bft) SW 225 0 min 0,0 UV-I 1,4 C 0,8 C 6,8 km/h (2 Bft)
22.02.2014 01:10 3,6 C 14,4 C 3,4 C 3,0 C 1,9 C 0,0 C 85 % 90 % 0 % 1015,1 hPa 0,0 l/m 4,7 km/h (1 Bft) S 180 0 min 0,0 UV-I 1,3 C 0,7 C 6,3 km/h (2 Bft)
22.02.2014 01:15 3,6 C 14,4 C 3,4 C 3,1 C 2,2 C 0,0 C 85 % 90 % 0 % 1015,1 hPa 0,0 l/m 3,9 km/h (1 Bft) W 270 0 min 0,0 UV-I 1,3 C 2,2 C 0,0 km/h (0 Bft)
22.02.2014 01:20 3,6 C 14,4 C 3,2 C 3,3 C 2,6 C 0,0 C 85 % 89 % 0 % 1015,1 hPa 0,0 l/m 1,9 km/h (1 Bft) W-SW 247 0 min 0,0 UV-I 1,3 C 2,6 C 1,8 km/h (1 Bft)
22.02.2014 01:25 3,5 C 14,5 C 3,2 C 3,2 C 2,6 C 0,0 C 85 % 89 % 0 % 1015,1 hPa 0,0 l/m 0,6 km/h (0 Bft) S-SO 157 0 min 0,0 UV-I 1,2 C 2,6 C 1,9 km/h (1 Bft)
22.02.2014 01:30 3,4 C 14,5 C 3,1 C 3,1 C 2,6 C 0,0 C 85 % 89 % 0 % 1015,1 hPa 0,0 l/m 0,3 km/h (0 Bft) O-NO 67 0 min 0,0 UV-I 1,1 C 2,6 C 0,0 km/h (0 Bft)
22.02.2014 01:35 3,3 C 14,5 C 3,0 C 3,1 C 2,6 C 0,0 C 85 % 89 % 0 % 1015,1 hPa 0,0 l/m 0,0 km/h (0 Bft) N-NO 22 0 min 0,0 UV-I 1,0 C 2,6 C 0,0 km/h (0 Bft)
22.02.2014 01:40 3,2 C 14,5 C 2,9 C 3,0 C 2,5 C 0,0 C 85 % 89 % 0 % 1015,1 hPa 0,0 l/m 0,0 km/h (0 Bft) S-SO 157 0 min 0,0 UV-I 0,9 C 2,5 C 0,0 km/h (0 Bft)
22.02.2014 01:45 3,1 C 14,5 C 2,8 C 2,8 C 2,3 C 0,0 C 85 % 89 % 0 % 1015,1 hPa 0,0 l/m 0,0 km/h (0 Bft) O 90 0 min 0,0 UV-I 0,8 C 2,3 C 0,0 km/h (0 Bft)
22.02.2014 01:50 3,0 C 14,5 C 2,7 C 2,7 C 2,0 C 0,0 C 84 % 89 % 0 % 1015,5 hPa 0,0 l/m 0,2 km/h (0 Bft) SO 135 0 min 0,0 UV-I 0,6 C 2,0 C 2,3 km/h (1 Bft)
22.02.2014 01:55 3,1 C 14,5 C 2,7 C 2,7 C 1,9 C 0,0 C 85 % 89 % 0 % 1015,5 hPa 0,0 l/m 0,5 km/h (0 Bft) O-SO 112 0 min 0,0 UV-I 0,8 C 1,9 C 0,0 km/h (0 Bft)
22.02.2014 02:00 2,9 C 14,5 C 2,5 C 2,5 C 1,7 C 0,0 C 85 % 89 % 0 % 1015,5 hPa 0,0 l/m 0,3 km/h (0 Bft) N-NO 22 0 min 0,0 UV-I 0,6 C 1,7 C 0,0 km/h (0 Bft)
22.02.2014 02:05 2,8 C 14,5 C 2,3 C 2,4 C 1,5 C 0,0 C 85 % 89 % 0 % 1015,5 hPa 0,0 l/m 0,0 km/h (0 Bft) S 180 0 min 0,0 UV-I 0,5 C 1,5 C 0,0 km/h (0 Bft)
22.02.2014 02:10 2,7 C 14,5 C 2,3 C 2,3 C 1,5 C 0,0 C 85 % 89 % 0 % 1015,9 hPa 0,0 l/m 0,0 km/h (0 Bft) SW 225 0 min 0,0 UV-I 0,4 C 1,5 C 0,0 km/h (0 Bft)
22.02.2014 02:15 2,7 C 14,5 C 2,2 C 2,2 C 1,3 C 0,0 C 85 % 89 % 0 % 1015,9 hPa 0,0 l/m 0,0 km/h (0 Bft) S 180 0 min 0,0 UV-I 0,4 C 1,3 C 0,0 km/h (0 Bft)
22.02.2014 02:20 2,5 C 14,5 C 2,3 C 2,1 C 1,4 C 0,0 C 86 % 89 % 0 % 1015,9 hPa 0,0 l/m 1,4 km/h (1 Bft) S-SW 202 0 min 0,0 UV-I 0,4 C 1,4 C 2,1 km/h (1 Bft)
22.02.2014 02:25 2,5 C 14,5 C 2,3 C 2,1 C 1,4 C 0,0 C 86 % 89 % 0 % 1015,9 hPa 0,0 l/m 1,4 km/h (1 Bft) SW 225 0 min 0,0 UV-I 0,4 C 1,4 C 0,0 km/h (0 Bft)
22.02.2014 02:30 2,4 C 14,5 C 2,0 C 2,0 C 1,2 C 0,0 C 86 % 89 % 0 % 1016,2 hPa 0,0 l/m 0,2 km/h (0 Bft) W 270 0 min 0,0 UV-I 0,3 C 1,2 C 0,0 km/h (0 Bft)
22.02.2014 02:35 2,3 C 14,5 C 1,9 C 1,9 C 1,0 C 0,0 C 86 % 89 % 0 % 1016,2 hPa 0,0 l/m 0,0 km/h (0 Bft) NO 45 0 min 0,0 UV-I 0,2 C 1,0 C 0,0 km/h (0 Bft)
22.02.2014 02:40 2,2 C 14,5 C 1,6 C 1,8 C 0,9 C 0,0 C 85 % 89 % 0 % 1016,2 hPa 0,0 l/m 0,0 km/h (0 Bft) O-NO 67 0 min 0,0 UV-I -0,1 C 0,9 C 0,0 km/h (0 Bft)
22.02.2014 02:45 2,0 C 14,5 C 1,6 C 1,6 C 0,8 C 0,0 C 85 % 89 % 0 % 1016,2 hPa 0,0 l/m 0,0 km/h (0 Bft) NO 45 0 min 0,0 UV-I -0,3 C 0,8 C 0,0 km/h (0 Bft)
22.02.2014 02:50 1,9 C 14,5 C 1,5 C 1,5 C 0,7 C 0,0 C 86 % 89 % 0 % 1016,2 hPa 0,0 l/m 0,0 km/h (0 Bft) NO 45 0 min 0,0 UV-I -0,2 C 0,7 C 0,0 km/h (0 Bft)
22.02.2014 02:55 1,9 C 14,5 C 1,4 C 1,5 C 0,8 C 0,0 C 86 % 89 % 0 % 1016,2 hPa 0,0 l/m 0,0 km/h (0 Bft) NO 45 0 min 0,0 UV-I -0,2 C 0,8 C 0,0 km/h (0 Bft)
22.02.2014 03:00 1,7 C 14,5 C 1,3 C 1,3 C 0,6 C 0,0 C 86 % 89 % 0 % 1016,2 hPa 0,0 l/m 0,0 km/h (0 Bft) N-NO 22 0 min 0,0 UV-I -0,4 C 0,6 C 0,0 km/h (0 Bft)
22.02.2014 03:05 1,6 C 14,5 C 1,2 C 1,2 C 0,5 C 0,0 C 86 % 89 % 0 % 1016,2 hPa 0,0 l/m 0,0 km/h (0 Bft) N-NO 22 0 min 0,0 UV-I -0,5 C 0,5 C 0,0 km/h (0 Bft)
22.02.2014 03:10 1,4 C 14,4 C 1,1 C 1,1 C 0,4 C 0,0 C 86 % 89 % 0 % 1016,6 hPa 0,0 l/m 0,0 km/h (0 Bft) N-NW 337 0 min 0,0 UV-I -0,7 C 0,4 C 0,0 km/h (0 Bft)
22.02.2014 03:15 1,5 C 14,4 C 1,1 C 1,1 C 0,4 C 0,0 C 86 % 89 % 0 % 1016,6 hPa 0,0 l/m 0,0 km/h (0 Bft) O-NO 67 0 min 0,0 UV-I -0,6 C 0,4 C 0,0 km/h (0 Bft)
22.02.2014 03:20 1,3 C 14,4 C 0,9 C 1,0 C 0,3 C 0,0 C 86 % 89 % 0 % 1016,6 hPa 0,0 l/m 0,0 km/h (0 Bft) NO 45 0 min 0,0 UV-I -0,8 C 0,3 C 0,0 km/h (0 Bft)
22.02.2014 03:25 1,2 C 14,5 C 0,9 C 0,9 C 0,3 C 0,0 C 86 % 89 % 0 % 1016,6 hPa 0,0 l/m 0,3 km/h (0 Bft) S 180 0 min 0,0 UV-I -0,9 C 0,3 C 1,9 km/h (1 Bft)
22.02.2014 03:30 1,2 C 14,5 C 1,1 C 0,9 C 0,4 C 0,0 C 87 % 89 % 0 % 1016,3 hPa 0,0 l/m 0,5 km/h (0 Bft) N-NO 22 0 min 0,0 UV-I -0,7 C 0,4 C 0,0 km/h (0 Bft)
22.02.2014 03:35 1,3 C 14,5 C 0,8 C 1,0 C 0,3 C 0,0 C 86 % 89 % 0 % 1016,3 hPa 0,0 l/m 0,5 km/h (0 Bft) O-NO 67 0 min 0,0 UV-I -0,8 C 0,3 C 0,0 km/h (0 Bft)
22.02.2014 03:40 1,2 C 14,5 C 0,8 C 0,9 C 0,4 C 0,0 C 87 % 89 % 0 % 1016,3 hPa 0,0 l/m 0,0 km/h (0 Bft) NO 45 0 min 0,0 UV-I -0,7 C 0,4 C 0,0 km/h (0 Bft)
22.02.2014 03:45 1,1 C 14,5 C 0,8 C 0,8 C 0,3 C 0,0 C 87 % 89 % 0 % 1016,3 hPa 0,0 l/m 0,0 km/h (0 Bft) O-NO 67 0 min 0,0 UV-I -0,8 C 0,3 C 0,0 km/h (0 Bft)
22.02.2014 03:50 1,1 C 14,5 C 0,8 C 0,8 C 0,3 C 0,0 C 87 % 89 % 0 % 1016,1 hPa 0,0 l/m 0,0 km/h (0 Bft) N-NO 22 0 min 0,0 UV-I -0,8 C 0,3 C 0,0 km/h (0 Bft)
22.02.2014 03:55 1,1 C 14,5 C 0,7 C 0,7 C 0,0 C 0,0 C 87 % 89 % 0 % 1016,1 hPa 0,0 l/m 0,0 km/h (0 Bft) O-NO 67 0 min 0,0 UV-I -0,8 C 0,0 C 0,0 km/h (0 Bft)
22.02.2014 04:00 0,9 C 14,4 C 0,7 C 0,6 C 0,0 C 0,0 C 87 % 89 % 0 % 1016,1 hPa 0,0 l/m 0,0 km/h (0 Bft) NO 45 0 min 0,0 UV-I -1,0 C 0,0 C 1,8 km/h (1 Bft)
22.02.2014 04:05 0,9 C 14,4 C 0,8 C 0,6 C 0,1 C 0,0 C 87 % 89 % 0 % 1016,1 hPa 0,0 l/m 0,5 km/h (0 Bft) NO 45 0 min 0,0 UV-I -1,0 C 0,1 C 2,4 km/h (1 Bft)
22.02.2014 04:10 0,9 C 14,4 C 0,8 C 0,6 C 0,1 C 0,0 C 87 % 89 % 0 % 1016,5 hPa 0,0 l/m 0,8 km/h (0 Bft) O-NO 67 0 min 0,0 UV-I -1,0 C 0,1 C 0,0 km/h (0 Bft)
22.02.2014 04:15 0,8 C 14,4 C 0,8 C 0,6 C 0,1 C 0,0 C 87 % 89 % 0 % 1016,5 hPa 0,0 l/m 0,5 km/h (0 Bft) O 90 0 min 0,0 UV-I -1,1 C 0,1 C 0,0 km/h (0 Bft)
22.02.2014 04:20 0,8 C 14,4 C 0,7 C 0,6 C 0,1 C 0,0 C 87 % 89 % 0 % 1016,5 hPa 0,0 l/m 0,0 km/h (0 Bft) N-NO 22 0 min 0,0 UV-I -1,1 C 0,1 C 1,8 km/h (1 Bft)
22.02.2014 04:25 0,8 C 14,4 C 0,7 C 0,6 C 0,1 C 0,0 C 87 % 89 % 0 % 1016,5 hPa 0,0 l/m 0,5 km/h (0 Bft) O-NO 67 0 min 0,0 UV-I -1,1 C 0,1 C 0,0 km/h (0 Bft)
22.02.2014 04:30 0,8 C 14,4 C 0,7 C 0,6 C 0,1 C 0,0 C 87 % 89 % 0 % 1016,6 hPa 0,0 l/m 0,5 km/h (0 Bft) NO 45 0 min 0,0 UV-I -1,1 C 0,1 C 0,0 km/h (0 Bft)
22.02.2014 04:35 0,8 C 14,3 C 0,7 C 0,5 C 0,0 C 0,0 C 87 % 89 % 0 % 1016,6 hPa 0,0 l/m 0,2 km/h (0 Bft) O-NO 67 0 min 0,0 UV-I -1,1 C 0,0 C 0,0 km/h (0 Bft)
22.02.2014 04:40 0,8 C 14,3 C 0,7 C 0,5 C -0,2 C 0,0 C 87 % 89 % 0 % 1016,6 hPa 0,0 l/m 0,0 km/h (0 Bft) SO 135 0 min 0,0 UV-I -1,1 C -0,2 C 0,0 km/h (0 Bft)
22.02.2014 04:45 0,8 C 14,3 C 0,5 C 0,5 C -0,2 C 0,0 C 87 % 89 % 0 % 1016,6 hPa 0,0 l/m 0,0 km/h (0 Bft) O-NO 67 0 min 0,0 UV-I -1,1 C -0,2 C 0,0 km/h (0 Bft)
22.02.2014 04:50 0,8 C 14,3 C 0,4 C 0,5 C -0,2 C 0,0 C 87 % 89 % 0 % 1016,7 hPa 0,0 l/m 0,0 km/h (0 Bft) O-NO 67 0 min 0,0 UV-I -1,1 C -0,2 C 0,0 km/h (0 Bft)
22.02.2014 04:55 0,7 C 14,3 C 0,3 C 0,4 C -0,2 C 0,0 C 87 % 89 % 0 % 1016,7 hPa 0,0 l/m 0,0 km/h (0 Bft) N-NO 22 0 min 0,0 UV-I -1,2 C -0,2 C 0,0 km/h (0 Bft)
22.02.2014 05:00 0,6 C 14,3 C 0,3 C 0,2 C -0,5 C 0,0 C 87 % 89 % 0 % 1016,7 hPa 0,0 l/m 0,0 km/h (0 Bft) S-SW 202 0 min 0,0 UV-I -1,3 C -0,5 C 0,0 km/h (0 Bft)
22.02.2014 05:05 0,5 C 14,3 C 0,2 C 0,1 C -0,6 C 0,0 C 87 % 89 % 0 % 1016,7 hPa 0,0 l/m 0,0 km/h (0 Bft) SW 225 0 min 0,0 UV-I -1,4 C -0,6 C 0,0 km/h (0 Bft)
22.02.2014 05:10 0,4 C 14,2 C 0,1 C 0,1 C -0,5 C 0,0 C 87 % 89 % 0 % 1016,8 hPa 0,0 l/m 0,0 km/h (0 Bft) S 180 0 min 0,0 UV-I -1,5 C -0,5 C 0,0 km/h (0 Bft)
22.02.2014 05:15 0,5 C 14,2 C 0,1 C 0,2 C -0,5 C 0,0 C 87 % 89 % 0 % 1016,8 hPa 0,0 l/m 0,0 km/h (0 Bft) W-SW 247 0 min 0,0 UV-I -1,4 C -0,5 C 0,0 km/h (0 Bft)
22.02.2014 05:20 0,3 C 14,2 C 0,0 C 0,0 C -0,5 C 0,0 C 87 % 89 % 0 % 1016,8 hPa 0,0 l/m 0,2 km/h (0 Bft) N 360 0 min 0,0 UV-I -1,6 C -0,5 C 0,0 km/h (0 Bft)
22.02.2014 05:25 0,3 C 14,2 C -0,1 C 0,0 C -0,5 C 0,0 C 87 % 89 % 0 % 1016,8 hPa 0,0 l/m 0,2 km/h (0 Bft) S 180 0 min 0,0 UV-I -1,6 C -0,5 C 0,0 km/h (0 Bft)
22.02.2014 05:30 0,3 C 14,2 C 0,1 C 0,0 C -0,6 C 0,0 C 87 % 89 % 0 % 1016,5 hPa 0,0 l/m 0,0 km/h (0 Bft) W 270 0 min 0,0 UV-I -1,6 C -0,6 C 0,0 km/h (0 Bft)
22.02.2014 05:35 0,3 C 14,2 C -0,1 C -0,1 C -0,8 C 0,0 C 87 % 90 % 0 % 1016,5 hPa 0,0 l/m 0,2 km/h (0 Bft) S-SO 157 0 min 0,0 UV-I -1,6 C -0,8 C 0,0 km/h (0 Bft)
22.02.2014 05:40 0,1 C 14,2 C 0,0 C -0,2 C -0,8 C 0,0 C 87 % 90 % 0 % 1016,5 hPa 0,0 l/m 0,3 km/h (0 Bft) SW 225 0 min 0,0 UV-I -1,8 C -0,8 C 0,0 km/h (0 Bft)
22.02.2014 05:45 0,0 C 14,2 C 0,0 C -0,3 C -0,9 C 0,0 C 87 % 90 % 0 % 1016,5 hPa 0,0 l/m 0,2 km/h (0 Bft) S-SO 157 0 min 0,0 UV-I -1,9 C -0,9 C 0,0 km/h (0 Bft)
22.02.2014 05:50 -0,1 C 14,2 C -0,1 C -0,4 C -1,0 C 0,0 C 87 % 90 % 0 % 1017,0 hPa 0,0 l/m 0,3 km/h (0 Bft) SO 135 0 min 0,0 UV-I -2,0 C -1,0 C 0,0 km/h (0 Bft)
22.02.2014 05:55 -0,1 C 14,2 C -0,1 C -0,4 C -0,9 C 0,0 C 87 % 90 % 0 % 1017,0 hPa 0,0 l/m 0,5 km/h (0 Bft) SO 135 0 min 0,0 UV-I -2,0 C -0,9 C 0,0 km/h (0 Bft)
22.02.2014 06:00 -0,1 C 14,2 C -0,1 C -0,4 C -0,9 C 0,0 C 87 % 90 % 0 % 1017,0 hPa 0,0 l/m 0,3 km/h (0 Bft) SO 135 0 min 0,0 UV-I -2,0 C -0,9 C 0,0 km/h (0 Bft)
22.02.2014 06:05 -0,1 C 14,1 C -0,1 C -0,4 C -0,9 C 0,0 C 87 % 90 % 0 % 1017,0 hPa 0,0 l/m 0,3 km/h (0 Bft) O-NO 67 0 min 0,0 UV-I -2,0 C -0,9 C 0,0 km/h (0 Bft)
22.02.2014 06:10 -0,1 C 14,1 C 0,3 C -0,3 C -0,8 C 0,0 C 88 % 90 % 0 % 1017,3 hPa 0,0 l/m 0,3 km/h (0 Bft) S-SW 202 0 min 0,0 UV-I -1,8 C -0,8 C 2,4 km/h (1 Bft)
22.02.2014 06:15 -0,1 C 14,1 C 0,3 C -0,3 C -0,8 C 0,0 C 88 % 90 % 0 % 1017,3 hPa 0,0 l/m 0,6 km/h (0 Bft) S-SW 202 0 min 0,0 UV-I -1,8 C -0,8 C 2,4 km/h (1 Bft)
22.02.2014 06:20 -0,1 C 14,1 C 0,3 C -0,3 C -0,6 C 0,0 C 88 % 90 % 0 % 1017,3 hPa 0,0 l/m 1,8 km/h (1 Bft) SW 225 0 min 0,0 UV-I -1,8 C -0,6 C 1,9 km/h (1 Bft)
22.02.2014 06:25 -0,1 C 14,1 C 0,3 C -0,3 C -0,6 C 0,0 C 88 % 90 % 0 % 1017,3 hPa 0,0 l/m 1,6 km/h (1 Bft) S 180 0 min 0,0 UV-I -1,8 C -0,6 C 0,0 km/h (0 Bft)
22.02.2014 06:30 -0,1 C 14,1 C -0,1 C -0,3 C -0,6 C 0,0 C 88 % 90 % 0 % 1017,0 hPa 0,0 l/m 0,5 km/h (0 Bft) W-NW 292 0 min 0,0 UV-I -1,8 C -0,6 C 0,0 km/h (0 Bft)
22.02.2014 06:35 -0,1 C 14,1 C -0,1 C -0,3 C -0,6 C 0,0 C 88 % 90 % 0 % 1017,0 hPa 0,0 l/m 0,3 km/h (0 Bft) SO 135 0 min 0,0 UV-I -1,8 C -0,6 C 0,0 km/h (0 Bft)
22.02.2014 06:40 -0,1 C 14,0 C -0,1 C -0,3 C -0,6 C 0,0 C 88 % 90 % 0 % 1017,0 hPa 0,0 l/m 0,3 km/h (0 Bft) SO 135 0 min 0,0 UV-I -1,8 C -0,6 C 1,6 km/h (1 Bft)
22.02.2014 06:45 0,0 C 14,0 C 0,3 C -0,2 C -0,5 C 0,0 C 88 % 90 % 0 % 1017,0 hPa 0,0 l/m 0,8 km/h (0 Bft) S-SO 157 0 min 0,0 UV-I -1,7 C -0,5 C 2,3 km/h (1 Bft)
22.02.2014 06:50 0,3 C 13,8 C 0,7 C 0,1 C -0,3 C 0,0 C 88 % 90 % 0 % 1017,1 hPa 0,0 l/m 1,4 km/h (1 Bft) O-SO 112 0 min 0,0 UV-I -1,4 C -0,3 C 1,9 km/h (1 Bft)
22.02.2014 06:55 0,2 C 13,8 C 0,7 C 0,0 C -0,3 C 0,0 C 89 % 90 % 0 % 1017,1 hPa 0,0 l/m 1,8 km/h (1 Bft) SO 135 0 min 0,0 UV-I -1,4 C -0,3 C 1,6 km/h (1 Bft)
22.02.2014 07:00 0,4 C 13,8 C 0,9 C 0,2 C -0,1 C 0,0 C 88 % 90 % 0 % 1017,1 hPa 0,0 l/m 1,8 km/h (1 Bft) S-SO 157 0 min 0,0 UV-I -1,3 C -0,1 C 3,1 km/h (1 Bft)
22.02.2014 07:05 0,4 C 13,7 C 0,8 C 0,2 C -0,1 C 0,0 C 88 % 90 % 0 % 1017,1 hPa 0,0 l/m 1,4 km/h (1 Bft) SW 225 0 min 0,0 UV-I -1,3 C -0,1 C 3,1 km/h (1 Bft)
22.02.2014 07:10 0,5 C 13,7 C 0,9 C 0,3 C -0,1 C 0,0 C 88 % 90 % 0 % 1017,1 hPa 0,0 l/m 1,3 km/h (1 Bft) S 180 0 min 0,0 UV-I -1,3 C -0,1 C 0,0 km/h (0 Bft)
22.02.2014 07:15 0,5 C 13,7 C 0,9 C 0,3 C -0,2 C 0,0 C 88 % 90 % 0 % 1017,1 hPa 0,0 l/m 0,8 km/h (0 Bft) SW 225 0 min 0,0 UV-I -1,3 C -0,2 C 0,0 km/h (0 Bft)
22.02.2014 07:20 0,4 C 13,7 C 0,8 C 0,2 C -0,2 C 0,0 C 88 % 90 % 0 % 1017,1 hPa 0,0 l/m 0,6 km/h (0 Bft) SO 135 0 min 0,0 UV-I -1,3 C -0,2 C 3,5 km/h (1 Bft)
22.02.2014 07:25 0,5 C 13,7 C 0,8 C 0,3 C -0,2 C 0,0 C 88 % 90 % 0 % 1017,1 hPa 0,0 l/m 0,6 km/h (0 Bft) O-SO 112 0 min 0,0 UV-I -1,3 C -0,2 C 0,0 km/h (0 Bft)
22.02.2014 07:30 0,5 C 13,7 C 0,9 C 0,3 C 0,0 C 0,0 C 88 % 90 % 0 % 1017,2 hPa 0,0 l/m 1,3 km/h (1 Bft) O-SO 112 0 min 0,0 UV-I -1,3 C 0,0 C 0,0 km/h (0 Bft)
22.02.2014 07:35 0,6 C 13,6 C 1,1 C 0,4 C 0,1 C 0,0 C 88 % 90 % 0 % 1017,2 hPa 0,0 l/m 1,9 km/h (1 Bft) S-SO 157 0 min 0,0 UV-I -1,2 C 0,1 C 2,9 km/h (1 Bft)
22.02.2014 07:40 0,9 C 13,6 C 1,1 C 0,8 C 0,6 C 0,0 C 88 % 90 % 0 % 1017,2 hPa 0,0 l/m 1,9 km/h (1 Bft) S 180 0 min 0,0 UV-I -0,9 C 0,6 C 3,2 km/h (1 Bft)
22.02.2014 07:45 0,9 C 13,6 C 1,2 C 0,8 C 0,6 C 0,0 C 88 % 90 % 0 % 1017,2 hPa 0,0 l/m 2,7 km/h (1 Bft) S-SO 157 0 min 0,0 UV-I -0,9 C 0,6 C 4,8 km/h (1 Bft)
22.02.2014 07:50 1,1 C 13,6 C 1,3 C 1,0 C 0,9 C 0,0 C 88 % 90 % 0 % 1017,2 hPa 0,0 l/m 2,6 km/h (1 Bft) O-NO 67 0 min 0,0 UV-I -0,7 C 0,9 C 2,6 km/h (1 Bft)
22.02.2014 07:55 1,1 C 13,6 C 1,3 C 1,1 C 1,0 C 0,0 C 88 % 90 % 0 % 1017,2 hPa 0,0 l/m 1,4 km/h (1 Bft) SO 135 0 min 0,0 UV-I -0,7 C 1,0 C 0,0 km/h (0 Bft)
22.02.2014 08:00 1,1 C 13,5 C 1,5 C 1,0 C 0,9 C 0,0 C 87 % 90 % 0 % 1017,2 hPa 0,0 l/m 1,1 km/h (1 Bft) O-NO 67 0 min 0,0 UV-I -0,8 C 0,9 C 2,9 km/h (1 Bft)
22.02.2014 08:05 1,3 C 13,5 C 1,5 C 1,2 C 1,1 C 0,0 C 87 % 89 % 0 % 1017,2 hPa 0,0 l/m 1,6 km/h (1 Bft) W 270 0 min 0,0 UV-I -0,6 C 1,1 C 5,6 km/h (1 Bft)
22.02.2014 08:10 1,5 C 13,5 C 1,8 C 1,7 C 1,7 C 0,2 C 87 % 89 % 5 % 1017,4 hPa 0,0 l/m 2,4 km/h (1 Bft) S-SW 202 0 min 0,0 UV-I -0,4 C 1,7 C 1,6 km/h (1 Bft)
22.02.2014 08:15 1,6 C 13,5 C 2,0 C 2,1 C 2,1 C 0,5 C 87 % 89 % 13 % 1017,4 hPa 0,0 l/m 2,3 km/h (1 Bft) O-NO 67 0 min 0,0 UV-I -0,3 C 2,1 C 2,7 km/h (1 Bft)
22.02.2014 08:20 1,9 C 13,5 C 2,1 C 2,4 C 2,4 C 0,5 C 87 % 89 % 13 % 1017,4 hPa 0,0 l/m 2,3 km/h (1 Bft) S 180 0 min 0,0 UV-I -0,0 C 2,4 C 2,6 km/h (1 Bft)
22.02.2014 08:25 1,9 C 13,4 C 2,3 C 2,7 C 2,7 C 0,8 C 86 % 89 % 21 % 1017,4 hPa 0,0 l/m 2,4 km/h (1 Bft) SO 135 0 min 0,0 UV-I -0,2 C 2,7 C 2,6 km/h (1 Bft)
22.02.2014 08:30 2,1 C 13,4 C 2,7 C 3,0 C 3,0 C 0,9 C 86 % 89 % 24 % 1017,4 hPa 0,0 l/m 1,9 km/h (1 Bft) O 90 0 min 0,0 UV-I 0,0 C 3,0 C 2,3 km/h (1 Bft)
22.02.2014 08:35 2,3 C 13,4 C 2,8 C 3,2 C 3,2 C 0,9 C 86 % 88 % 24 % 1017,4 hPa 0,0 l/m 1,6 km/h (1 Bft) S-SO 157 0 min 0,0 UV-I 0,2 C 3,2 C 5,5 km/h (1 Bft)
22.02.2014 08:40 2,5 C 13,4 C 3,3 C 3,3 C 3,3 C 0,8 C 86 % 88 % 21 % 1017,4 hPa 0,0 l/m 2,9 km/h (1 Bft) SO 135 0 min 0,0 UV-I 0,4 C 3,3 C 6,4 km/h (2 Bft)
22.02.2014 08:45 2,7 C 13,4 C 3,6 C 3,2 C 3,2 C 0,5 C 85 % 87 % 13 % 1017,4 hPa 0,0 l/m 4,2 km/h (1 Bft) SO 135 0 min 0,0 UV-I 0,4 C 3,2 C 8,9 km/h (2 Bft)
22.02.2014 08:50 2,9 C 13,4 C 3,9 C 4,2 C 4,2 C 1,3 C 85 % 87 % 34 % 1017,9 hPa 0,0 l/m 4,8 km/h (1 Bft) S 180 0 min 0,0 UV-I 0,6 C 3,3 C 6,4 km/h (2 Bft)
22.02.2014 08:55 3,1 C 13,3 C 4,1 C 3,8 C 3,8 C 0,7 C 85 % 87 % 18 % 1017,9 hPa 0,0 l/m 4,5 km/h (1 Bft) S-SO 157 0 min 0,0 UV-I 0,8 C 3,8 C 8,2 km/h (2 Bft)
22.02.2014 09:00 3,2 C 13,3 C 4,4 C 4,4 C 4,4 C 1,2 C 84 % 86 % 32 % 1017,9 hPa 0,0 l/m 4,3 km/h (1 Bft) N-NW 337 0 min 0,0 UV-I 0,8 C 4,4 C 6,4 km/h (2 Bft)
22.02.2014 09:05 3,3 C 13,3 C 4,4 C 4,2 C 4,2 C 0,9 C 83 % 85 % 24 % 1017,9 hPa 0,0 l/m 4,5 km/h (1 Bft) SW 225 0 min 0,0 UV-I 0,7 C 4,2 C 8,9 km/h (2 Bft)
22.02.2014 09:10 3,5 C 13,3 C 4,7 C 3,4 C 3,1 C 0,0 C 83 % 84 % 0 % 1017,9 hPa 0,0 l/m 5,6 km/h (1 Bft) SO 135 0 min 0,0 UV-I 0,9 C 1,7 C 13,4 km/h (3 Bft)
22.02.2014 09:15 3,6 C 13,3 C 4,9 C 3,4 C 3,1 C 0,0 C 83 % 83 % 0 % 1017,9 hPa 0,0 l/m 5,5 km/h (1 Bft) N-NW 337 0 min 0,0 UV-I 1,0 C 1,7 C 0,0 km/h (0 Bft)
22.02.2014 09:20 3,6 C 13,3 C 5,2 C 3,6 C 3,6 C 0,0 C 83 % 83 % 0 % 1017,9 hPa 0,0 l/m 4,2 km/h (1 Bft) S 180 0 min 0,0 UV-I 1,0 C 3,6 C 3,7 km/h (1 Bft)
22.02.2014 09:22 3,9 C 13,2 C 5,2 C 4,4 C 4,4 C 0,5 C 83 % 82 % 13 % 1017,9 hPa 0,0 l/m 3,5 km/h (1 Bft) S 180 0 min 0,0 UV-I 1,3 C 4,4 C 11,4 km/h (2 Bft)
22.02.2014 09:27 4,1 C 13,2 C 5,3 C 5,1 C 5,1 C 1,0 C 83 % 82 % 26 % 1018,2 hPa 0,0 l/m 3,5 km/h (1 Bft) SW 225 0 min 0,0 UV-I 1,5 C 5,1 C 8,4 km/h (2 Bft)
22.02.2014 09:32 4,1 C 13,2 C 5,3 C 4,6 C 4,6 C 0,5 C 83 % 82 % 13 % 1018,2 hPa 0,0 l/m 4,5 km/h (1 Bft) SW 225 0 min 0,0 UV-I 1,5 C 4,6 C 9,5 km/h (2 Bft)
22.02.2014 09:37 4,4 C 13,2 C 5,1 C 4,6 C 4,6 C 0,2 C 82 % 81 % 5 % 1018,2 hPa 0,0 l/m 4,5 km/h (1 Bft) S 180 0 min 0,0 UV-I 1,6 C 4,6 C 5,8 km/h (2 Bft)
22.02.2014 09:42 4,4 C 13,2 C 4,9 C 4,7 C 4,7 C 0,3 C 81 % 82 % 8 % 1018,2 hPa 0,0 l/m 4,3 km/h (1 Bft) O-SO 112 0 min 0,0 UV-I 1,4 C 4,7 C 7,2 km/h (2 Bft)
22.02.2014 09:47 4,7 C 13,2 C 5,1 C 5,8 C 5,8 C 1,1 C 81 % 81 % 29 % 1018,2 hPa 0,0 l/m 3,9 km/h (1 Bft) NW 315 0 min 0,0 UV-I 1,7 C 5,8 C 3,9 km/h (1 Bft)
22.02.2014 09:52 4,9 C 13,2 C 5,1 C 5,7 C 5,7 C 0,8 C 80 % 81 % 21 % 1018,2 hPa 0,0 l/m 4,8 km/h (1 Bft) S 180 0 min 0,0 UV-I 1,7 C 5,0 C 15,1 km/h (3 Bft)
22.02.2014 09:57 5,1 C 13,2 C 4,9 C 7,7 C 7,7 C 2,6 C 80 % 82 % 68 % 1018,2 hPa 0,0 l/m 4,8 km/h (1 Bft) O-SO 112 0 min 0,0 UV-I 1,9 C 7,2 C 3,2 km/h (1 Bft)
22.02.2014 10:02 5,1 C 13,1 C 5,1 C 8,1 C 8,1 C 3,0 C 80 % 82 % 79 % 1018,2 hPa 0,0 l/m 4,0 km/h (1 Bft) S 180 0 min 0,0 UV-I 1,9 C 8,1 C 6,6 km/h (2 Bft)
22.02.2014 10:07 5,3 C 13,2 C 5,1 C 8,2 C 8,2 C 2,9 C 79 % 82 % 76 % 1018,1 hPa 0,0 l/m 4,3 km/h (1 Bft) S 180 0 min 0,0 UV-I 2,0 C 8,2 C 11,4 km/h (2 Bft)
22.02.2014 10:12 5,5 C 13,2 C 5,1 C 7,5 C 7,5 C 2,0 C 79 % 82 % 53 % 1018,1 hPa 0,0 l/m 4,5 km/h (1 Bft) SO 135 0 min 0,0 UV-I 2,2 C 7,5 C 0,0 km/h (0 Bft)
22.02.2014 10:17 5,6 C 13,2 C 5,1 C 6,9 C 6,9 C 1,3 C 79 % 82 % 34 % 1018,1 hPa 0,0 l/m 3,7 km/h (1 Bft) SO 135 0 min 0,0 UV-I 2,3 C 6,9 C 6,1 km/h (2 Bft)
22.02.2014 10:22 5,6 C 13,2 C 5,2 C 6,8 C 6,8 C 1,2 C 79 % 81 % 32 % 1018,1 hPa 0,0 l/m 3,5 km/h (1 Bft) O-SO 112 0 min 0,0 UV-I 2,3 C 6,8 C 5,6 km/h (1 Bft)
22.02.2014 10:27 5,8 C 13,2 C 5,2 C 6,5 C 6,5 C 0,7 C 78 % 81 % 18 % 1018,1 hPa 0,0 l/m 4,2 km/h (1 Bft) S-SO 157 0 min 0,0 UV-I 2,3 C 6,5 C 6,6 km/h (2 Bft)
22.02.2014 10:32 5,9 C 13,2 C 5,2 C 6,5 C 6,5 C 0,6 C 78 % 81 % 16 % 1018,1 hPa 0,0 l/m 4,2 km/h (1 Bft) S-SO 157 0 min 0,0 UV-I 2,4 C 6,5 C 3,5 km/h (1 Bft)
22.02.2014 10:37 6,3 C 13,2 C 5,3 C 6,8 C 6,8 C 0,5 C 77 % 81 % 13 % 1018,1 hPa 0,0 l/m 4,7 km/h (1 Bft) SO 135 0 min 0,0 UV-I 2,6 C 6,2 C 5,5 km/h (1 Bft)
22.02.2014 10:42 6,4 C 13,3 C 5,5 C 7,3 C 7,3 C 0,9 C 76 % 81 % 24 % 1018,1 hPa 0,0 l/m 5,1 km/h (1 Bft) W 270 0 min 0,0 UV-I 2,5 C 6,7 C 5,1 km/h (1 Bft)
22.02.2014 10:47 6,7 C 13,3 C 5,6 C 7,9 C 7,9 C 1,2 C 75 % 80 % 32 % 1018,2 hPa 0,0 l/m 5,0 km/h (1 Bft) W-SW 247 0 min 0,0 UV-I 2,6 C 7,4 C 2,7 km/h (1 Bft)
22.02.2014 10:52 6,7 C 13,3 C 5,6 C 7,9 C 7,9 C 1,2 C 75 % 80 % 32 % 1018,2 hPa 0,0 l/m 5,0 km/h (1 Bft) W-SW 247 0 min 0,0 UV-I 2,6 C 7,4 C 2,7 km/h (1 Bft)
22.02.2014 10:55 6,8 C 13,3 C 5,6 C 8,2 C 8,2 C 1,4 C 75 % 80 % 37 % 1018,2 hPa 0,0 l/m 4,7 km/h (1 Bft) S-SO 157 0 min 0,0 UV-I 2,7 C 7,8 C 6,9 km/h (2 Bft)
22.02.2014 11:00 6,8 C 13,2 C 5,8 C 9,1 C 9,1 C 2,3 C 74 % 79 % 61 % 1018,2 hPa 0,0 l/m 4,5 km/h (1 Bft) S-SO 157 0 min 0,0 UV-I 2,5 C 9,1 C 6,1 km/h (2 Bft)
22.02.2014 11:05 6,9 C 13,2 C 5,9 C 9,2 C 9,2 C 2,3 C 73 % 79 % 61 % 1018,2 hPa 0,0 l/m 5,5 km/h (1 Bft) W 270 0 min 0,0 UV-I 2,4 C 8,7 C 6,8 km/h (2 Bft)
22.02.2014 11:10 7,1 C 13,2 C 6,1 C 9,8 C 9,8 C 2,7 C 73 % 78 % 71 % 1018,2 hPa 0,0 l/m 4,8 km/h (1 Bft) NW 315 0 min 0,0 UV-I 2,6 C 9,6 C 15,9 km/h (3 Bft)
22.02.2014 11:15 7,3 C 13,2 C 6,2 C 9,6 C 9,6 C 2,3 C 72 % 78 % 61 % 1018,2 hPa 0,0 l/m 4,8 km/h (1 Bft) S 180 0 min 0,0 UV-I 2,6 C 9,4 C 12,2 km/h (2 Bft)
22.02.2014 11:20 7,3 C 13,2 C 6,4 C 8,8 C 8,8 C 1,5 C 70 % 77 % 39 % 1018,2 hPa 0,0 l/m 6,6 km/h (2 Bft) SW 225 0 min 0,0 UV-I 2,2 C 7,9 C 16,6 km/h (3 Bft)
22.02.2014 11:25 7,4 C 13,2 C 6,4 C 8,4 C 8,4 C 1,0 C 71 % 77 % 26 % 1018,2 hPa 0,0 l/m 7,2 km/h (2 Bft) S-SO 157 0 min 0,0 UV-I 2,5 C 7,3 C 7,7 km/h (2 Bft)
22.02.2014 11:30 7,6 C 13,2 C 6,5 C 8,3 C 8,3 C 0,7 C 70 % 77 % 18 % 1018,6 hPa 0,0 l/m 7,4 km/h (2 Bft) SW 225 0 min 0,0 UV-I 2,5 C 7,1 C 17,5 km/h (3 Bft)
22.02.2014 11:35 7,6 C 13,3 C 6,7 C 8,2 C 8,2 C 0,6 C 69 % 76 % 16 % 1018,6 hPa 0,0 l/m 7,4 km/h (2 Bft) S 180 0 min 0,0 UV-I 2,3 C 7,0 C 10,0 km/h (2 Bft)
22.02.2014 11:40 7,8 C 13,3 C 6,9 C 9,1 C 9,1 C 1,3 C 69 % 77 % 34 % 1018,6 hPa 0,0 l/m 7,1 km/h (2 Bft) SW 225 0 min 0,0 UV-I 2,5 C 8,2 C 20,3 km/h (4 Bft)
22.02.2014 11:45 7,9 C 13,3 C 6,8 C 9,5 C 9,3 C 1,6 C 67 % 75 % 42 % 1018,6 hPa 0,0 l/m 7,7 km/h (2 Bft) S 180 0 min 0,0 UV-I 2,2 C 8,3 C 9,8 km/h (2 Bft)
22.02.2014 11:50 8,0 C 13,3 C 7,1 C 10,1 C 10,0 C 2,1 C 67 % 75 % 55 % 1018,9 hPa 0,0 l/m 8,9 km/h (2 Bft) SW 225 0 min 0,0 UV-I 2,3 C 8,8 C 15,1 km/h (3 Bft)
22.02.2014 11:55 8,1 C 13,3 C 7,1 C 10,5 C 10,5 C 2,4 C 67 % 75 % 63 % 1018,9 hPa 0,0 l/m 7,6 km/h (2 Bft) S 180 0 min 0,0 UV-I 2,3 C 10,5 C 6,8 km/h (2 Bft)
22.02.2014 12:00 8,2 C 13,3 C 7,2 C 12,1 C 12,1 C 3,9 C 67 % 75 % 100 % 1018,9 hPa 0,0 l/m 6,6 km/h (2 Bft) SO 135 5 min 0,0 UV-I 2,4 C 12,1 C 2,9 km/h (1 Bft)
22.02.2014 12:05 8,4 C 13,3 C 7,3 C 12,7 C 12,7 C 4,3 C 67 % 74 % 100 % 1018,9 hPa 0,0 l/m 5,6 km/h (1 Bft) SW 225 5 min 0,0 UV-I 2,6 C 12,7 C 5,3 km/h (1 Bft)
22.02.2014 12:10 8,4 C 13,4 C 7,5 C 13,6 C 13,6 C 5,2 C 66 % 73 % 100 % 1018,9 hPa 0,0 l/m 5,3 km/h (1 Bft) SO 135 5 min 0,0 UV-I 2,4 C 13,6 C 12,4 km/h (3 Bft)
22.02.2014 12:15 8,5 C 13,4 C 7,5 C 12,9 C 12,9 C 4,4 C 64 % 72 % 100 % 1018,9 hPa 0,0 l/m 7,4 km/h (2 Bft) S-SW 202 5 min 0,0 UV-I 2,1 C 12,9 C 14,2 km/h (3 Bft)
22.02.2014 12:20 8,4 C 13,4 C 7,5 C 12,8 C 12,4 C 4,4 C 66 % 72 % 100 % 1018,9 hPa 0,0 l/m 9,0 km/h (2 Bft) SW 225 5 min 0,0 UV-I 2,4 C 12,4 C 5,6 km/h (1 Bft)
22.02.2014 12:25 8,5 C 13,4 C 7,5 C 12,8 C 12,7 C 4,3 C 65 % 73 % 100 % 1018,9 hPa 0,0 l/m 8,7 km/h (2 Bft) NO 45 5 min 0,0 UV-I 2,3 C 12,7 C 4,5 km/h (1 Bft)
22.02.2014 12:30 8,7 C 13,4 C 7,6 C 12,9 C 12,8 C 4,2 C 63 % 71 % 100 % 1018,2 hPa 0,0 l/m 8,0 km/h (2 Bft) S 180 5 min 0,0 UV-I 2,1 C 12,8 C 20,6 km/h (4 Bft)
22.02.2014 12:35 8,5 C 13,4 C 7,6 C 12,7 C 12,4 C 4,2 C 63 % 71 % 100 % 1018,2 hPa 0,0 l/m 8,5 km/h (2 Bft) NW 315 5 min 0,0 UV-I 1,9 C 12,4 C 5,1 km/h (1 Bft)
22.02.2014 12:41 8,5 C 13,5 C 7,6 C 12,3 C 11,9 C 3,8 C 63 % 71 % 100 % 1018,2 hPa 0,0 l/m 10,0 km/h (2 Bft) N 0 6 min 0,0 UV-I 1,9 C 11,9 C 8,0 km/h (2 Bft)
22.02.2014 13:02 8,9 C 13,5 C 8,1 C 12,6 C 12,7 C 3,7 C 63 % 71 % 97 % 1017,9 hPa 0,0 l/m 8,4 km/h (2 Bft) O-SO 112 21 min 0,0 UV-I 2,2 C 12,7 C 21,6 km/h (4 Bft)
22.02.2014 13:03 9,1 C 13,6 C 8,1 C 13,0 C 12,9 C 3,9 C 63 % 70 % 100 % 1017,9 hPa 0,0 l/m 9,2 km/h (2 Bft) O-SO 112 1 min 0,0 UV-I 2,4 C 12,9 C 8,2 km/h (2 Bft)
22.02.2014 13:05 9,1 C 13,6 C 8,1 C 12,9 C 12,9 C 3,8 C 63 % 70 % 100 % 1017,9 hPa 0,0 l/m 9,2 km/h (2 Bft) O-SO 112 2 min 0,0 UV-I 2,4 C 12,9 C 8,2 km/h (2 Bft)
22.02.2014 13:10 9,3 C 13,6 C 8,4 C 13,7 C 13,7 C 4,4 C 61 % 69 % 100 % 1018,0 hPa 0,0 l/m 6,3 km/h (2 Bft) N-NO 22 5 min 0,0 UV-I 2,2 C 13,7 C 10,3 km/h (2 Bft)
22.02.2014 13:15 9,1 C 13,6 C 8,4 C 12,5 C 12,5 C 3,4 C 61 % 68 % 89 % 1018,0 hPa 0,0 l/m 6,3 km/h (2 Bft) S-SO 157 5 min 0,0 UV-I 2,0 C 12,5 C 13,0 km/h (3 Bft)
22.02.2014 13:20 8,8 C 13,6 C 8,1 C 10,4 C 10,4 C 1,6 C 62 % 69 % 42 % 1018,0 hPa 0,0 l/m 5,6 km/h (1 Bft) SW 225 0 min 0,0 UV-I 1,9 C 10,4 C 9,8 km/h (2 Bft)
22.02.2014 13:25 8,7 C 13,6 C 8,0 C 9,3 C 9,3 C 0,6 C 62 % 69 % 16 % 1018,0 hPa 0,0 l/m 6,4 km/h (2 Bft) S-SO 157 0 min 0,0 UV-I 1,8 C 8,6 C 9,8 km/h (2 Bft)
22.02.2014 13:30 8,9 C 13,6 C 8,5 C 9,3 C 9,3 C 0,4 C 59 % 68 % 11 % 1018,0 hPa 0,0 l/m 10,3 km/h (2 Bft) S 180 0 min 0,0 UV-I 1,3 C 7,7 C 19,8 km/h (3 Bft)
22.02.2014 13:35 9,2 C 13,7 C 9,0 C 10,6 C 10,8 C 1,4 C 59 % 66 % 37 % 1018,0 hPa 0,0 l/m 9,8 km/h (2 Bft) SO 135 0 min 0,0 UV-I 1,6 C 10,8 C 4,5 km/h (1 Bft)
22.02.2014 13:40 9,1 C 13,7 C 8,9 C 10,7 C 10,1 C 1,6 C 58 % 65 % 42 % 1018,0 hPa 0,0 l/m 10,3 km/h (2 Bft) S 180 0 min 0,0 UV-I 1,3 C 10,1 C 17,4 km/h (3 Bft)
22.02.2014 13:45 9,3 C 13,7 C 8,8 C 10,6 C 10,4 C 1,3 C 58 % 64 % 34 % 1018,0 hPa 0,0 l/m 9,0 km/h (2 Bft) O-SO 112 0 min 0,0 UV-I 1,5 C 10,4 C 6,0 km/h (2 Bft)
22.02.2014 13:50 9,5 C 13,7 C 8,8 C 11,3 C 11,3 C 1,8 C 58 % 65 % 47 % 1018,6 hPa 0,0 l/m 6,9 km/h (2 Bft) S 180 0 min 0,0 UV-I 1,7 C 11,3 C 11,7 km/h (2 Bft)
22.02.2014 13:55 9,5 C 13,7 C 8,8 C 11,3 C 11,0 C 1,8 C 56 % 64 % 47 % 1018,6 hPa 0,0 l/m 8,0 km/h (2 Bft) SW 225 0 min 0,0 UV-I 1,2 C 11,0 C 7,6 km/h (2 Bft)
22.02.2014 14:00 9,6 C 13,8 C 8,9 C 11,3 C 10,9 C 1,7 C 55 % 64 % 45 % 1018,6 hPa 0,0 l/m 10,6 km/h (2 Bft) S 180 0 min 0,0 UV-I 1,0 C 10,9 C 22,2 km/h (4 Bft)
22.02.2014 14:05 9,6 C 13,8 C 8,9 C 10,9 C 10,9 C 1,3 C 54 % 63 % 34 % 1018,6 hPa 0,0 l/m 11,3 km/h (2 Bft) SW 225 0 min 0,0 UV-I 0,8 C 10,9 C 12,2 km/h (2 Bft)
22.02.2014 14:10 9,6 C 13,8 C 9,1 C 11,3 C 11,0 C 1,7 C 55 % 63 % 45 % 1017,6 hPa 0,0 l/m 10,9 km/h (2 Bft) S 180 0 min 0,0 UV-I 1,0 C 11,0 C 14,8 km/h (3 Bft)
22.02.2014 14:15 9,7 C 13,8 C 9,1 C 11,2 C 10,7 C 1,5 C 53 % 62 % 39 % 1017,6 hPa 0,0 l/m 10,9 km/h (2 Bft) S 180 0 min 0,0 UV-I 0,6 C 10,7 C 19,2 km/h (3 Bft)
22.02.2014 14:20 9,7 C 13,8 C 9,2 C 10,8 C 10,1 C 1,1 C 55 % 62 % 29 % 1017,6 hPa 0,0 l/m 13,2 km/h (3 Bft) SO 135 0 min 0,0 UV-I 1,1 C 10,1 C 26,9 km/h (4 Bft)
22.02.2014 14:25 9,8 C 13,8 C 9,4 C 10,8 C 10,5 C 1,0 C 54 % 62 % 26 % 1017,6 hPa 0,0 l/m 12,7 km/h (3 Bft) S-SO 157 0 min 0,0 UV-I 0,9 C 10,5 C 14,8 km/h (3 Bft)
22.02.2014 14:30 10,0 C 13,9 C 9,5 C 11,1 C 10,9 C 1,1 C 54 % 62 % 29 % 1018,1 hPa 0,0 l/m 10,8 km/h (2 Bft) S-SW 202 0 min 0,0 UV-I 1,1 C 10,9 C 17,7 km/h (3 Bft)
22.02.2014 14:35 9,9 C 13,9 C 9,5 C 11,2 C 10,8 C 1,3 C 53 % 61 % 34 % 1018,1 hPa 0,0 l/m 11,4 km/h (2 Bft) S-SO 157 0 min 0,0 UV-I 0,8 C 10,8 C 12,9 km/h (3 Bft)
22.02.2014 14:40 9,7 C 13,9 C 9,2 C 11,1 C 10,5 C 1,4 C 54 % 61 % 37 % 1018,1 hPa 0,0 l/m 12,7 km/h (3 Bft) S 180 0 min 0,0 UV-I 0,9 C 10,5 C 20,1 km/h (4 Bft)
22.02.2014 14:45 9,7 C 13,9 C 9,1 C 10,9 C 10,3 C 1,2 C 54 % 61 % 32 % 1018,1 hPa 0,0 l/m 13,5 km/h (3 Bft) S 180 0 min 0,0 UV-I 0,9 C 10,3 C 21,2 km/h (4 Bft)
22.02.2014 14:50 9,3 C 13,9 C 8,9 C 9,9 C 8,8 C 0,6 C 56 % 63 % 16 % 1017,9 hPa 0,0 l/m 13,8 km/h (3 Bft) S-SO 157 0 min 0,0 UV-I 1,0 C 6,6 C 24,3 km/h (4 Bft)
22.02.2014 14:55 9,2 C 13,9 C 8,8 C 9,3 C 8,6 C 0,1 C 56 % 63 % 3 % 1017,9 hPa 0,0 l/m 13,2 km/h (3 Bft) S 180 0 min 0,0 UV-I 0,9 C 6,4 C 18,2 km/h (3 Bft)
22.02.2014 15:00 9,2 C 13,9 C 8,8 C 9,0 C 8,6 C 0,0 C 56 % 63 % 0 % 1017,9 hPa 0,0 l/m 13,2 km/h (3 Bft) S 180 0 min 0,0 UV-I 0,9 C 6,4 C 18,2 km/h (3 Bft)
22.02.2014 15:05 9,1 C 13,9 C 8,6 C 9,0 C 7,8 C 0,0 C 55 % 62 % 0 % 1018,4 hPa 0,0 l/m 12,7 km/h (3 Bft) S 180 0 min 0,0 UV-I 0,5 C 5,5 C 19,5 km/h (3 Bft)
22.02.2014 15:10 9,0 C 13,9 C 8,7 C 8,8 C 7,7 C 0,0 C 53 % 61 % 0 % 1018,4 hPa 0,0 l/m 13,0 km/h (3 Bft) S-SO 157 0 min 0,0 UV-I -0,1 C 5,4 C 21,6 km/h (4 Bft)
22.02.2014 15:15 9,1 C 13,9 C 8,7 C 8,9 C 7,9 C 0,0 C 55 % 62 % 0 % 1018,4 hPa 0,0 l/m 12,6 km/h (3 Bft) SW 225 0 min 0,0 UV-I 0,5 C 5,7 C 14,2 km/h (3 Bft)
22.02.2014 15:20 9,3 C 13,9 C 8,8 C 9,3 C 9,2 C 0,0 C 56 % 63 % 0 % 1018,4 hPa 0,0 l/m 12,2 km/h (2 Bft) O-NO 67 0 min 0,0 UV-I 1,0 C 7,3 C 13,4 km/h (3 Bft)
22.02.2014 15:25 9,4 C 13,9 C 8,7 C 10,3 C 10,4 C 0,9 C 55 % 62 % 24 % 1018,3 hPa 0,0 l/m 9,0 km/h (2 Bft) SW 225 0 min 0,0 UV-I 0,8 C 10,4 C 8,0 km/h (2 Bft)
22.02.2014 15:30 9,7 C 13,9 C 8,8 C 11,8 C 11,8 C 2,1 C 57 % 64 % 55 % 1018,3 hPa 0,0 l/m 7,1 km/h (2 Bft) S 180 0 min 0,0 UV-I 1,6 C 11,8 C 12,4 km/h (3 Bft)
22.02.2014 15:35 9,9 C 14,0 C 8,9 C 12,3 C 12,3 C 2,4 C 56 % 64 % 63 % 1018,3 hPa 0,0 l/m 7,6 km/h (2 Bft) SW 225 0 min 0,0 UV-I 1,5 C 12,3 C 11,9 km/h (2 Bft)
22.02.2014 15:40 10,0 C 14,0 C 8,8 C 12,6 C 12,6 C 2,6 C 56 % 64 % 68 % 1018,3 hPa 0,0 l/m 7,6 km/h (2 Bft) W-SW 247 0 min 0,0 UV-I 1,6 C 12,6 C 6,3 km/h (2 Bft)
22.02.2014 15:45 10,0 C 14,0 C 8,7 C 12,5 C 12,2 C 2,5 C 54 % 63 % 66 % 1018,6 hPa 0,0 l/m 8,4 km/h (2 Bft) S 180 0 min 0,0 UV-I 1,1 C 12,2 C 15,4 km/h (3 Bft)
22.02.2014 15:50 9,5 C 14,0 C 8,4 C 11,5 C 10,7 C 2,0 C 53 % 63 % 53 % 1018,6 hPa 0,0 l/m 9,3 km/h (2 Bft) S-SW 202 0 min 0,0 UV-I 0,4 C 10,7 C 14,8 km/h (3 Bft)
22.02.2014 15:55 9,2 C 14,0 C 8,3 C 9,9 C 8,8 C 0,7 C 54 % 63 % 18 % 1018,6 hPa 0,0 l/m 10,8 km/h (2 Bft) S 180 0 min 0,0 UV-I 0,4 C 7,1 C 13,0 km/h (3 Bft)
22.02.2014 16:00 9,1 C 14,0 C 8,0 C 9,0 C 8,2 C 0,0 C 54 % 62 % 0 % 1018,6 hPa 0,0 l/m 10,5 km/h (2 Bft) S 180 0 min 0,0 UV-I 0,3 C 6,4 C 10,0 km/h (2 Bft)
22.02.2014 16:05 8,9 C 14,0 C 8,0 C 8,7 C 7,6 C 0,0 C 54 % 62 % 0 % 1018,8 hPa 0,0 l/m 10,1 km/h (2 Bft) S 180 0 min 0,0 UV-I 0,1 C 5,7 C 14,6 km/h (3 Bft)
22.02.2014 16:10 8,8 C 14,0 C 7,9 C 8,5 C 7,5 C 0,0 C 55 % 63 % 0 % 1018,8 hPa 0,0 l/m 8,9 km/h (2 Bft) S-SO 157 0 min 0,0 UV-I 0,3 C 5,9 C 8,5 km/h (2 Bft)
22.02.2014 16:15 8,7 C 14,0 C 7,8 C 8,4 C 7,1 C 0,0 C 55 % 63 % 0 % 1018,8 hPa 0,0 l/m 9,5 km/h (2 Bft) SW 225 0 min 0,0 UV-I 0,2 C 5,3 C 10,6 km/h (2 Bft)
22.02.2014 16:20 8,6 C 14,0 C 7,7 C 8,2 C 6,7 C 0,0 C 55 % 63 % 0 % 1018,8 hPa 0,0 l/m 10,0 km/h (2 Bft) SW 225 0 min 0,0 UV-I 0,1 C 4,7 C 13,7 km/h (3 Bft)
22.02.2014 16:25 8,7 C 14,0 C 7,7 C 8,2 C 6,4 C 0,0 C 55 % 63 % 0 % 1018,8 hPa 0,0 l/m 11,6 km/h (2 Bft) SW 225 0 min 0,0 UV-I 0,2 C 4,0 C 20,0 km/h (4 Bft)
22.02.2014 16:30 8,7 C 14,0 C 7,7 C 8,2 C 6,5 C 0,0 C 56 % 63 % 0 % 1018,8 hPa 0,0 l/m 12,1 km/h (2 Bft) W-SW 247 0 min 0,0 UV-I 0,4 C 4,1 C 10,5 km/h (2 Bft)
22.02.2014 16:35 8,6 C 14,0 C 7,6 C 8,1 C 6,6 C 0,0 C 57 % 65 % 0 % 1018,8 hPa 0,0 l/m 11,1 km/h (2 Bft) W-SW 247 0 min 0,0 UV-I 0,6 C 4,4 C 14,0 km/h (3 Bft)
22.02.2014 16:40 8,5 C 14,0 C 7,5 C 8,1 C 6,8 C 0,0 C 57 % 65 % 0 % 1018,8 hPa 0,0 l/m 9,3 km/h (2 Bft) W-SW 247 0 min 0,0 UV-I 0,5 C 5,0 C 8,2 km/h (2 Bft)
22.02.2014 16:45 8,4 C 14,0 C 7,5 C 8,0 C 6,9 C 0,0 C 58 % 65 % 0 % 1018,8 hPa 0,0 l/m 8,5 km/h (2 Bft) W-SW 247 0 min 0,0 UV-I 0,6 C 5,2 C 9,5 km/h (2 Bft)
22.02.2014 16:50 8,5 C 14,0 C 7,4 C 8,0 C 6,9 C 0,0 C 58 % 66 % 0 % 1019,2 hPa 0,0 l/m 7,6 km/h (2 Bft) W-SW 247 0 min 0,0 UV-I 0,7 C 5,5 C 15,8 km/h (3 Bft)
22.02.2014 16:55 8,5 C 14,1 C 7,5 C 8,2 C 7,5 C 0,0 C 59 % 67 % 0 % 1019,2 hPa 0,0 l/m 7,4 km/h (2 Bft) SW 225 0 min 0,0 UV-I 1,0 C 6,2 C 7,9 km/h (2 Bft)
22.02.2014 17:00 8,4 C 14,1 C 7,5 C 8,2 C 7,9 C 0,0 C 59 % 67 % 0 % 1019,2 hPa 0,0 l/m 7,6 km/h (2 Bft) W-SW 247 0 min 0,0 UV-I 0,9 C 6,6 C 6,9 km/h (2 Bft)
22.02.2014 17:05 8,4 C 14,1 C 7,4 C 8,2 C 7,8 C 0,0 C 59 % 67 % 0 % 1019,2 hPa 0,0 l/m 7,2 km/h (2 Bft) SW 225 0 min 0,0 UV-I 0,9 C 6,6 C 10,8 km/h (2 Bft)
22.02.2014 17:10 8,4 C 14,1 C 7,5 C 8,2 C 7,7 C 0,0 C 59 % 67 % 0 % 1019,4 hPa 0,0 l/m 6,9 km/h (2 Bft) W-SW 247 0 min 0,0 UV-I 0,9 C 6,6 C 6,6 km/h (2 Bft)
22.02.2014 17:15 8,3 C 14,1 C 7,3 C 8,0 C 7,3 C 0,0 C 60 % 68 % 0 % 1019,4 hPa 0,0 l/m 6,8 km/h (2 Bft) W-SW 247 0 min 0,0 UV-I 1,0 C 6,1 C 8,9 km/h (2 Bft)
22.02.2014 17:20 8,1 C 14,1 C 7,2 C 7,7 C 6,8 C 0,0 C 61 % 68 % 0 % 1019,4 hPa 0,0 l/m 7,4 km/h (2 Bft) W-SW 247 0 min 0,0 UV-I 1,0 C 5,4 C 9,2 km/h (2 Bft)
22.02.2014 17:25 7,9 C 14,1 C 7,1 C 7,4 C 6,4 C 0,0 C 62 % 69 % 0 % 1019,4 hPa 0,0 l/m 7,1 km/h (2 Bft) SW 225 0 min 0,0 UV-I 1,1 C 5,0 C 7,6 km/h (2 Bft)
22.02.2014 17:30 7,8 C 14,1 C 6,8 C 7,4 C 6,5 C 0,0 C 62 % 70 % 0 % 1018,9 hPa 0,0 l/m 6,3 km/h (2 Bft) SW 225 0 min 0,0 UV-I 1,0 C 5,4 C 6,6 km/h (2 Bft)
22.02.2014 17:35 7,7 C 14,1 C 6,8 C 7,2 C 6,3 C 0,0 C 63 % 70 % 0 % 1018,9 hPa 0,0 l/m 6,1 km/h (2 Bft) W-SW 247 0 min 0,0 UV-I 1,1 C 5,2 C 8,5 km/h (2 Bft)
22.02.2014 17:40 7,6 C 14,1 C 6,7 C 7,1 C 6,2 C 0,0 C 63 % 70 % 0 % 1018,9 hPa 0,0 l/m 6,1 km/h (2 Bft) W 270 0 min 0,0 UV-I 1,0 C 5,1 C 8,4 km/h (2 Bft)
22.02.2014 17:45 7,6 C 14,1 C 6,6 C 7,1 C 6,2 C 0,0 C 64 % 71 % 0 % 1018,9 hPa 0,0 l/m 6,0 km/h (2 Bft) W-SW 247 0 min 0,0 UV-I 1,2 C 5,1 C 6,1 km/h (2 Bft)
22.02.2014 17:50 7,5 C 14,1 C 6,4 C 7,0 C 6,1 C 0,0 C 64 % 71 % 0 % 1019,3 hPa 0,0 l/m 5,1 km/h (1 Bft) SW 225 0 min 0,0 UV-I 1,1 C 5,3 C 5,3 km/h (1 Bft)
22.02.2014 17:55 7,3 C 14,1 C 6,3 C 6,9 C 6,0 C 0,0 C 64 % 72 % 0 % 1019,3 hPa 0,0 l/m 4,7 km/h (1 Bft) W-SW 247 0 min 0,0 UV-I 1,0 C 5,3 C 4,3 km/h (1 Bft)
22.02.2014 18:00 7,2 C 14,1 C 6,1 C 6,7 C 5,6 C 0,0 C 65 % 72 % 0 % 1019,3 hPa 0,0 l/m 4,8 km/h (1 Bft) W-SW 247 0 min 0,0 UV-I 1,1 C 4,8 C 6,4 km/h (2 Bft)
22.02.2014 18:05 7,0 C 14,1 C 5,9 C 6,4 C 5,3 C 0,0 C 65 % 72 % 0 % 1019,3 hPa 0,0 l/m 5,0 km/h (1 Bft) W-SW 247 0 min 0,0 UV-I 0,9 C 4,4 C 6,6 km/h (2 Bft)
22.02.2014 18:10 6,9 C 14,1 C 5,7 C 6,4 C 5,5 C 0,0 C 65 % 72 % 0 % 1019,3 hPa 0,0 l/m 4,0 km/h (1 Bft) SW 225 0 min 0,0 UV-I 0,8 C 5,5 C 1,6 km/h (1 Bft)
22.02.2014 18:15 6,8 C 14,1 C 5,6 C 6,4 C 5,6 C 0,0 C 66 % 73 % 0 % 1019,3 hPa 0,0 l/m 2,3 km/h (1 Bft) NO 45 0 min 0,0 UV-I 0,9 C 5,6 C 0,0 km/h (0 Bft)
22.02.2014 18:20 6,7 C 14,1 C 5,5 C 6,3 C 5,4 C 0,0 C 66 % 73 % 0 % 1019,3 hPa 0,0 l/m 2,4 km/h (1 Bft) W 270 0 min 0,0 UV-I 0,8 C 5,4 C 4,8 km/h (1 Bft)
22.02.2014 18:25 6,7 C 14,1 C 5,2 C 6,2 C 5,2 C 0,0 C 66 % 73 % 0 % 1019,3 hPa 0,0 l/m 3,2 km/h (1 Bft) W-SW 247 0 min 0,0 UV-I 0,8 C 5,2 C 4,3 km/h (1 Bft)
22.02.2014 18:30 6,5 C 14,1 C 5,2 C 6,1 C 5,3 C 0,0 C 67 % 73 % 0 % 1019,9 hPa 0,0 l/m 2,9 km/h (1 Bft) S-SW 202 0 min 0,0 UV-I 0,8 C 5,3 C 1,6 km/h (1 Bft)
22.02.2014 18:35 6,4 C 14,1 C 5,1 C 5,9 C 4,9 C 0,0 C 67 % 74 % 0 % 1019,9 hPa 0,0 l/m 0,5 km/h (0 Bft) O-SO 112 0 min 0,0 UV-I 0,7 C 4,9 C 0,0 km/h (0 Bft)
22.02.2014 18:41 6,3 C 14,1 C 4,9 C 5,7 C 4,6 C 0,0 C 67 % 74 % 0 % 1019,9 hPa 0,0 l/m 0,0 km/h (0 Bft) N 0 0 min 0,0 UV-I 0,6 C 4,6 C 0,0 km/h (0 Bft)
22.02.2014 18:49 6,0 C 14,1 C 4,8 C 5,4 C 4,2 C 0,0 C 68 % 75 % 0 % 1019,8 hPa 0,0 l/m 0,0 km/h (0 Bft) S 180 0 min 0,0 UV-I 0,6 C 4,2 C 0,0 km/h (0 Bft)
22.02.2014 18:55 5,8 C 14,1 C 4,8 C 5,3 C 4,3 C 0,0 C 68 % 75 % 0 % 1019,8 hPa 0,0 l/m 0,0 km/h (0 Bft) S 180 0 min 0,0 UV-I 0,4 C 4,3 C 0,0 km/h (0 Bft)
22.02.2014 19:00 5,9 C 14,1 C 4,9 C 5,4 C 4,3 C 0,0 C 69 % 75 % 0 % 1019,8 hPa 0,0 l/m 0,3 km/h (0 Bft) S 180 0 min 0,0 UV-I 0,7 C 4,3 C 4,2 km/h (1 Bft)
22.02.2014 19:05 5,7 C 14,1 C 5,0 C 5,4 C 4,7 C 0,0 C 69 % 76 % 0 % 1019,8 hPa 0,0 l/m 1,8 km/h (1 Bft) S-SO 157 0 min 0,0 UV-I 0,5 C 4,7 C 2,3 km/h (1 Bft)
22.02.2014 19:10 5,7 C 14,1 C 4,9 C 5,4 C 4,9 C 0,0 C 69 % 76 % 0 % 1020,1 hPa 0,0 l/m 2,1 km/h (1 Bft) SW 225 0 min 0,0 UV-I 0,5 C 4,9 C 3,5 km/h (1 Bft)
22.02.2014 19:15 5,7 C 14,1 C 4,9 C 5,5 C 5,1 C 0,0 C 69 % 76 % 0 % 1020,1 hPa 0,0 l/m 1,4 km/h (1 Bft) SW 225 0 min 0,0 UV-I 0,5 C 5,1 C 2,1 km/h (1 Bft)
22.02.2014 19:20 5,7 C 14,1 C 4,9 C 5,5 C 5,1 C 0,0 C 69 % 76 % 0 % 1020,1 hPa 0,0 l/m 1,3 km/h (1 Bft) W-SW 247 0 min 0,0 UV-I 0,5 C 5,1 C 2,1 km/h (1 Bft)
22.02.2014 19:25 5,6 C 14,1 C 4,8 C 5,4 C 5,1 C 0,0 C 70 % 76 % 0 % 1020,1 hPa 0,0 l/m 1,1 km/h (1 Bft) S 180 0 min 0,0 UV-I 0,6 C 5,1 C 3,4 km/h (1 Bft)
22.02.2014 19:30 5,5 C 14,1 C 4,8 C 5,4 C 5,1 C 0,0 C 70 % 77 % 0 % 1020,9 hPa 0,0 l/m 0,8 km/h (0 Bft) N-NO 22 0 min 0,0 UV-I 0,5 C 5,1 C 0,0 km/h (0 Bft)
22.02.2014 19:35 5,5 C 14,1 C 4,8 C 5,3 C 5,0 C 0,0 C 70 % 77 % 0 % 1020,9 hPa 0,0 l/m 0,3 km/h (0 Bft) W-SW 247 0 min 0,0 UV-I 0,5 C 5,0 C 0,0 km/h (0 Bft)
22.02.2014 19:40 5,3 C 14,1 C 4,8 C 5,2 C 5,0 C 0,0 C 70 % 77 % 0 % 1020,9 hPa 0,0 l/m 0,0 km/h (0 Bft) SO 135 0 min 0,0 UV-I 0,3 C 5,0 C 0,0 km/h (0 Bft)
22.02.2014 19:45 5,3 C 14,1 C 4,9 C 5,2 C 5,1 C 0,0 C 70 % 77 % 0 % 1020,9 hPa 0,0 l/m 0,2 km/h (0 Bft) S 180 0 min 0,0 UV-I 0,3 C 5,1 C 0,0 km/h (0 Bft)
22.02.2014 19:50 5,4 C 14,1 C 4,9 C 5,3 C 5,1 C 0,0 C 70 % 77 % 0 % 1020,9 hPa 0,0 l/m 0,3 km/h (0 Bft) S-SW 202 0 min 0,0 UV-I 0,4 C 5,1 C 0,0 km/h (0 Bft)
22.02.2014 19:55 5,5 C 14,1 C 4,8 C 5,4 C 5,2 C 0,0 C 71 % 77 % 0 % 1020,9 hPa 0,0 l/m 0,5 km/h (0 Bft) W-SW 247 0 min 0,0 UV-I 0,7 C 5,2 C 1,9 km/h (1 Bft)
22.02.2014 20:00 5,3 C 14,1 C 4,9 C 5,2 C 5,1 C 0,0 C 71 % 77 % 0 % 1020,9 hPa 0,0 l/m 0,5 km/h (0 Bft) SW 225 0 min 0,0 UV-I 0,5 C 5,1 C 0,0 km/h (0 Bft)
22.02.2014 20:05 5,3 C 14,2 C 4,9 C 5,2 C 5,1 C 0,0 C 71 % 77 % 0 % 1020,9 hPa 0,0 l/m 0,2 km/h (0 Bft) O-SO 112 0 min 0,0 UV-I 0,5 C 5,1 C 0,0 km/h (0 Bft)
22.02.2014 20:10 5,2 C 14,0 C 4,8 C 5,1 C 5,0 C 0,0 C 71 % 77 % 0 % 1021,1 hPa 0,0 l/m 0,0 km/h (0 Bft) SO 135 0 min 0,0 UV-I 0,4 C 5,0 C 0,0 km/h (0 Bft)
22.02.2014 20:15 5,2 C 14,1 C 4,9 C 5,1 C 5,0 C 0,0 C 71 % 77 % 0 % 1021,1 hPa 0,0 l/m 0,0 km/h (0 Bft) O-SO 112 0 min 0,0 UV-I 0,4 C 5,0 C 0,0 km/h (0 Bft)
22.02.2014 20:20 5,2 C 14,1 C 4,8 C 5,1 C 5,0 C 0,0 C 71 % 77 % 0 % 1021,1 hPa 0,0 l/m 0,0 km/h (0 Bft) O-SO 112 0 min 0,0 UV-I 0,4 C 5,0 C 0,0 km/h (0 Bft)
22.02.2014 20:25 5,2 C 14,1 C 4,9 C 5,2 C 5,1 C 0,0 C 71 % 77 % 0 % 1021,1 hPa 0,0 l/m 1,0 km/h (0 Bft) S 180 0 min 0,0 UV-I 0,4 C 5,1 C 2,4 km/h (1 Bft)
22.02.2014 20:30 5,3 C 14,1 C 4,9 C 5,2 C 5,1 C 0,0 C 71 % 77 % 0 % 1020,6 hPa 0,0 l/m 1,4 km/h (1 Bft) S 180 0 min 0,0 UV-I 0,5 C 5,1 C 0,0 km/h (0 Bft)
22.02.2014 20:35 5,3 C 14,1 C 4,9 C 5,3 C 5,2 C 0,0 C 71 % 77 % 0 % 1020,6 hPa 0,0 l/m 0,6 km/h (0 Bft) O-NO 67 0 min 0,0 UV-I 0,5 C 5,2 C 0,0 km/h (0 Bft)
22.02.2014 20:40 5,5 C 14,0 C 4,9 C 5,4 C 5,3 C 0,0 C 71 % 77 % 0 % 1020,6 hPa 0,0 l/m 1,0 km/h (0 Bft) S 180 0 min 0,0 UV-I 0,7 C 5,3 C 2,6 km/h (1 Bft)
22.02.2014 20:45 5,5 C 14,0 C 4,9 C 5,4 C 5,3 C 0,0 C 71 % 77 % 0 % 1020,6 hPa 0,0 l/m 1,9 km/h (1 Bft) S 180 0 min 0,0 UV-I 0,7 C 5,3 C 3,1 km/h (1 Bft)
22.02.2014 20:50 5,5 C 14,0 C 4,9 C 5,4 C 5,3 C 0,0 C 71 % 77 % 0 % 1021,0 hPa 0,0 l/m 1,6 km/h (1 Bft) O-SO 112 0 min 0,0 UV-I 0,7 C 5,3 C 0,0 km/h (0 Bft)
22.02.2014 20:55 5,5 C 14,1 C 4,9 C 5,4 C 5,2 C 0,0 C 71 % 77 % 0 % 1021,0 hPa 0,0 l/m 0,6 km/h (0 Bft) S-SW 202 0 min 0,0 UV-I 0,7 C 5,2 C 1,9 km/h (1 Bft)
22.02.2014 21:00 5,5 C 14,1 C 4,9 C 5,4 C 5,1 C 0,0 C 71 % 77 % 0 % 1021,0 hPa 0,0 l/m 0,3 km/h (0 Bft) S-SO 157 0 min 0,0 UV-I 0,7 C 5,1 C 1,8 km/h (1 Bft)
22.02.2014 21:05 5,5 C 14,0 C 5,1 C 5,4 C 5,2 C 0,0 C 71 % 77 % 0 % 1021,0 hPa 0,0 l/m 0,6 km/h (0 Bft) W-NW 292 0 min 0,0 UV-I 0,7 C 5,2 C 0,0 km/h (0 Bft)
22.02.2014 21:10 5,5 C 14,0 C 5,0 C 5,4 C 5,2 C 0,0 C 71 % 77 % 0 % 1021,2 hPa 0,0 l/m 0,6 km/h (0 Bft) SO 135 0 min 0,0 UV-I 0,7 C 5,2 C 2,9 km/h (1 Bft)
22.02.2014 21:15 5,6 C 14,0 C 5,1 C 5,5 C 5,3 C 0,0 C 72 % 77 % 0 % 1021,2 hPa 0,0 l/m 1,4 km/h (1 Bft) SO 135 0 min 0,0 UV-I 1,0 C 5,3 C 3,5 km/h (1 Bft)
22.02.2014 21:20 5,6 C 14,0 C 5,1 C 5,5 C 5,4 C 0,0 C 72 % 77 % 0 % 1021,2 hPa 0,0 l/m 2,3 km/h (1 Bft) S 180 0 min 0,0 UV-I 1,0 C 5,4 C 2,4 km/h (1 Bft)
22.02.2014 21:25 5,6 C 14,0 C 5,2 C 5,6 C 5,5 C 0,0 C 72 % 77 % 0 % 1021,2 hPa 0,0 l/m 2,1 km/h (1 Bft) S-SW 202 0 min 0,0 UV-I 1,0 C 5,5 C 3,2 km/h (1 Bft)
22.02.2014 21:30 5,7 C 14,0 C 5,2 C 5,7 C 5,6 C 0,0 C 71 % 77 % 0 % 1021,3 hPa 0,0 l/m 1,6 km/h (1 Bft) W 270 0 min 0,0 UV-I 0,9 C 5,6 C 0,0 km/h (0 Bft)
22.02.2014 21:35 5,7 C 14,0 C 5,3 C 5,7 C 5,6 C 0,0 C 72 % 77 % 0 % 1021,3 hPa 0,0 l/m 1,3 km/h (1 Bft) SW 225 0 min 0,0 UV-I 1,1 C 5,6 C 1,6 km/h (1 Bft)
22.02.2014 21:40 5,7 C 14,0 C 5,3 C 5,7 C 5,6 C 0,0 C 72 % 77 % 0 % 1021,3 hPa 0,0 l/m 1,3 km/h (1 Bft) SW 225 0 min 0,0 UV-I 1,1 C 5,6 C 2,1 km/h (1 Bft)
22.02.2014 21:45 5,7 C 14,0 C 5,2 C 5,7 C 5,7 C 0,0 C 72 % 77 % 0 % 1021,3 hPa 0,0 l/m 2,1 km/h (1 Bft) SW 225 0 min 0,0 UV-I 1,1 C 5,7 C 4,0 km/h (1 Bft)
22.02.2014 21:50 5,7 C 14,0 C 5,2 C 5,7 C 5,7 C 0,0 C 72 % 77 % 0 % 1022,1 hPa 0,0 l/m 1,9 km/h (1 Bft) W-SW 247 0 min 0,0 UV-I 1,1 C 5,7 C 4,0 km/h (1 Bft)
22.02.2014 21:55 5,7 C 14,0 C 5,2 C 5,7 C 5,6 C 0,0 C 72 % 77 % 0 % 1022,1 hPa 0,0 l/m 2,1 km/h (1 Bft) S-SW 202 0 min 0,0 UV-I 1,1 C 5,6 C 3,1 km/h (1 Bft)
22.02.2014 22:00 5,7 C 14,0 C 5,2 C 5,7 C 5,6 C 0,0 C 72 % 77 % 0 % 1022,1 hPa 0,0 l/m 2,3 km/h (1 Bft) W-SW 247 0 min 0,0 UV-I 1,1 C 5,6 C 2,7 km/h (1 Bft)
22.02.2014 22:05 5,7 C 14,0 C 5,2 C 5,6 C 5,5 C 0,0 C 72 % 77 % 0 % 1022,1 hPa 0,0 l/m 1,4 km/h (1 Bft) SO 135 0 min 0,0 UV-I 1,1 C 5,5 C 1,6 km/h (1 Bft)
22.02.2014 22:10 5,8 C 14,0 C 5,3 C 5,7 C 5,5 C 0,0 C 72 % 77 % 0 % 1022,1 hPa 0,0 l/m 1,0 km/h (0 Bft) SW 225 0 min 0,0 UV-I 1,2 C 5,5 C 2,6 km/h (1 Bft)
22.02.2014 22:15 5,7 C 14,0 C 5,2 C 5,6 C 5,5 C 0,0 C 72 % 77 % 0 % 1022,1 hPa 0,0 l/m 0,3 km/h (0 Bft) W-SW 247 0 min 0,0 UV-I 1,1 C 5,5 C 0,0 km/h (0 Bft)
22.02.2014 22:20 5,7 C 14,0 C 5,2 C 5,6 C 5,4 C 0,0 C 72 % 77 % 0 % 1022,1 hPa 0,0 l/m 0,6 km/h (0 Bft) W-SW 247 0 min 0,0 UV-I 1,1 C 5,4 C 2,1 km/h (1 Bft)
22.02.2014 22:25 5,7 C 14,0 C 5,1 C 5,6 C 5,4 C 0,0 C 72 % 77 % 0 % 1022,1 hPa 0,0 l/m 0,6 km/h (0 Bft) W-SW 247 0 min 0,0 UV-I 1,1 C 5,4 C 0,0 km/h (0 Bft)
22.02.2014 22:30 5,7 C 14,0 C 5,1 C 5,6 C 5,4 C 0,0 C 72 % 77 % 0 % 1022,2 hPa 0,0 l/m 0,3 km/h (0 Bft) N-NO 22 0 min 0,0 UV-I 1,1 C 5,4 C 0,0 km/h (0 Bft)
22.02.2014 22:35 5,6 C 14,0 C 5,2 C 5,5 C 5,4 C 0,0 C 72 % 77 % 0 % 1022,2 hPa 0,0 l/m 0,0 km/h (0 Bft) N-NO 22 0 min 0,0 UV-I 1,0 C 5,4 C 0,0 km/h (0 Bft)
22.02.2014 22:40 5,7 C 14,0 C 5,2 C 5,6 C 5,4 C 0,0 C 72 % 77 % 0 % 1022,2 hPa 0,0 l/m 0,3 km/h (0 Bft) S-SW 202 0 min 0,0 UV-I 1,1 C 5,4 C 0,0 km/h (0 Bft)
22.02.2014 22:45 5,6 C 13,9 C 5,1 C 5,5 C 5,3 C 0,0 C 72 % 77 % 0 % 1022,2 hPa 0,0 l/m 0,6 km/h (0 Bft) N-NO 22 0 min 0,0 UV-I 1,0 C 5,3 C 1,6 km/h (1 Bft)
22.02.2014 22:50 5,7 C 13,9 C 5,1 C 5,6 C 5,3 C 0,0 C 72 % 77 % 0 % 1022,4 hPa 0,0 l/m 0,3 km/h (0 Bft) O-SO 112 0 min 0,0 UV-I 1,1 C 5,3 C 0,0 km/h (0 Bft)
22.02.2014 22:55 5,6 C 13,9 C 5,1 C 5,5 C 5,3 C 0,0 C 72 % 77 % 0 % 1022,4 hPa 0,0 l/m 0,2 km/h (0 Bft) S-SO 157 0 min 0,0 UV-I 1,0 C 5,3 C 2,6 km/h (1 Bft)
22.02.2014 23:00 5,7 C 13,9 C 5,1 C 5,5 C 5,2 C 0,0 C 72 % 77 % 0 % 1022,4 hPa 0,0 l/m 0,2 km/h (0 Bft) W 270 0 min 0,0 UV-I 1,1 C 5,2 C 2,3 km/h (1 Bft)
22.02.2014 23:05 5,6 C 13,9 C 4,9 C 5,5 C 5,2 C 0,0 C 72 % 78 % 0 % 1022,4 hPa 0,0 l/m 0,3 km/h (0 Bft) NO 45 0 min 0,0 UV-I 1,0 C 5,2 C 0,0 km/h (0 Bft)
22.02.2014 23:10 5,6 C 13,9 C 4,9 C 5,5 C 5,2 C 0,0 C 72 % 78 % 0 % 1022,6 hPa 0,0 l/m 0,2 km/h (0 Bft) N-NO 22 0 min 0,0 UV-I 1,0 C 5,2 C 0,0 km/h (0 Bft)
22.02.2014 23:15 5,6 C 13,9 C 4,9 C 5,5 C 5,2 C 0,0 C 72 % 78 % 0 % 1022,6 hPa 0,0 l/m 0,2 km/h (0 Bft) W-SW 247 0 min 0,0 UV-I 1,0 C 5,2 C 0,0 km/h (0 Bft)
22.02.2014 23:20 5,5 C 13,9 C 4,9 C 5,4 C 5,1 C 0,0 C 73 % 78 % 0 % 1022,6 hPa 0,0 l/m 0,5 km/h (0 Bft) W-SW 247 0 min 0,0 UV-I 1,1 C 5,1 C 2,6 km/h (1 Bft)
22.02.2014 23:25 5,5 C 13,9 C 4,8 C 5,4 C 5,1 C 0,0 C 73 % 78 % 0 % 1022,6 hPa 0,0 l/m 1,4 km/h (1 Bft) SW 225 0 min 0,0 UV-I 1,1 C 5,1 C 2,4 km/h (1 Bft)
22.02.2014 23:30 5,4 C 13,9 C 4,8 C 5,3 C 5,1 C 0,0 C 73 % 79 % 0 % 1022,8 hPa 0,0 l/m 1,9 km/h (1 Bft) W-SW 247 0 min 0,0 UV-I 1,0 C 5,1 C 3,1 km/h (1 Bft)
22.02.2014 23:35 5,3 C 13,9 C 4,7 C 5,2 C 5,0 C 0,0 C 73 % 79 % 0 % 1022,8 hPa 0,0 l/m 1,6 km/h (1 Bft) W-SW 247 0 min 0,0 UV-I 0,9 C 5,0 C 0,0 km/h (0 Bft)
22.02.2014 23:40 5,2 C 13,9 C 4,7 C 5,1 C 4,9 C 0,0 C 73 % 79 % 0 % 1022,8 hPa 0,0 l/m 1,0 km/h (0 Bft) W-SW 247 0 min 0,0 UV-I 0,8 C 4,9 C 0,0 km/h (0 Bft)
22.02.2014 23:45 5,2 C 13,9 C 4,5 C 5,0 C 4,7 C 0,0 C 73 % 79 % 0 % 1022,8 hPa 0,0 l/m 0,3 km/h (0 Bft) W-SW 247 0 min 0,0 UV-I 0,8 C 4,7 C 1,6 km/h (1 Bft)
22.02.2014 23:50 5,2 C 13,9 C 4,5 C 5,0 C 4,6 C 0,0 C 73 % 79 % 0 % 1022,8 hPa 0,0 l/m 0,5 km/h (0 Bft) W-SW 247 0 min 0,0 UV-I 0,8 C 4,6 C 1,8 km/h (1 Bft)
22.02.2014 23:55 5,1 C 13,9 C 4,4 C 4,9 C 4,5 C 0,0 C 74 % 80 % 0 % 1022,8 hPa 0,0 l/m 1,1 km/h (1 Bft) W 270 0 min 0,0 UV-I 0,9 C 4,5 C 0,0 km/h (0 Bft)
_ Min-Zeit 05:50 10:02 05:25 05:50 05:50 00:00 14:15 14:35 00:00 00:10 - 01:35 - - - 00:00 05:50 05:50 00:05
Minimum _ -0,1 C 13,1 C -0,1 C -0,4 C -1,0 C 0,0 C 53 % 61 % 0 % 1014,5 hPa - 0,0 km/h (0 Bft) - - - 0,0 UV-I -2,0 C -1,0 C 0,0 km/h (0 Bft)
_ Max-Zeit 14:30 00:00 14:30 13:10 13:10 12:10 06:55 00:10 12:00 23:30 00:00 14:50 - - 13:02 00:00 10:55 13:10 14:20
Maximum _ 10,0 C 14,8 C 9,5 C 13,7 C 13,7 C 5,2 C 89 % 90 % 100 % 1022,8 hPa 0,0 l/m 13,8 km/h
S-SO (3 Bft)
- - 21 min 0,0 UV-I 2,7 C 13,7 C 26,9 km/h
SO (4 Bft)
Durchschnitt _ 5,0 C 13,9 C 4,6 C 5,3 C 4,9 C 0,5 C 74 % 79 % 14 % 1018,3 hPa #0,0 l/m 3,7 km/h (1 Bft) S - #1:20 h 0,0 UV-I 0,6 C 4,6 C 5,2 km/h (1 Bft)
2014 www.wetterstation-wechselburg.de